Regional Weather Roundup
Issued by NWS

Home | Current Version | Previous Version | Graphics & Text | Print | Product List | Glossary On
Versions: 1 2 3 4 5 6 7 8 9 10 11 12 13 14 15 16 17 18 19 20 21 22 23 24 25 26 27 28 29 30 31 32 33 34 35 36 37 38 39 40 41 42 43 44 45 46 47 48 49 50
000
ASUS43 KMPX 170110
RWRMN
WEATHER ROUNDUP FOR MINNESOTA
NATIONAL WEATHER SERVICE TWIN CITIES/CHANHASSEN MN
800 PM CDT WED AUG 16 2017


NOTE: "FAIR" INDICATES FEW OR NO CLOUDS BELOW 12,000 FEET WITH NO
SIGNIFICANT WEATHER AND/OR OBSTRUCTIONS TO VISIBILITY. N/A MEANS
CURRENT SKY AND/OR WEATHER CONDITIONS ARE NOT AVAILABLE.

MNZ060>063-068>070-170200-
   Twin Cities Metro

CITY           SKY/WX    TMP DP  RH WIND       PRES   REMARKS
TWIN CITIES    RAIN      74  69  85 E15       29.66F
ST PAUL        RAIN      73  70  90 E14G23    29.67F FOG
CRYSTAL        RAIN      73  67  81 E8        29.65F
BLAINE         LGT RAIN  73  72  94 E12       29.69F
LAKEVILLE      HVY RAIN  70 N/A N/A E13       29.67S
EDEN PRAIRIE   HVY RAIN  73  70  90 NE12G22   29.64F FOG
SOUTH ST PAUL  LGT RAIN  73  71  92 E9G16     29.67F
LAKE ELMO      RAIN      73  68  83 E9        29.71F
$$
MNZ001>005-007-008-013>017-022>024-027-028-170200-
   Northwest Minnesota

CITY           SKY/WX    TMP DP  RH WIND       PRES   REMARKS
BEMIDJI        RAIN      64  64  99 E5        29.83S
HALLOCK        CLOUDY    66  63  88 NE3       29.85R
ROSEAU         CLOUDY    64  57  77 NE3       29.85S HAZE
WARROAD        CLOUDY    63  61  94 SE13      29.86S
THIEF RVR FALL CLOUDY    65  63  93 N6        29.84S
CROOKSTON      CLOUDY    64  64 100 N7        29.83S
FOSSTON        DRIZZLE   64  63  94 CALM      29.83S
DETROIT LAKES  DRIZZLE   64  64 100 NE3       29.81F
MOORHEAD       DRIZZLE   64  64 100 N9        29.80F
PARK RAPIDS    LGT RAIN  67  64  90 E6        29.80F
MAHNOMEN       DRIZZLE   65  64  98 N3        29.81F
$$
MNZ006-009>011-018-025>026-170200-
   North Central Minnesota

CITY           SKY/WX    TMP DP  RH WIND       PRES   REMARKS
BAUDETTE       LGT RAIN  62  61  96 E12       29.85F
FLAG ISLAND    CLOUDY    64  57  77 E5        29.87S
INTL FALLS     RAIN      62  59  90 E8        29.88F FOG
WASKISH        DRIZZLE   63  63 100 E7        29.84F
BIG FORK       DRIZZLE   64  63  94 CALM      29.86R
LONGVILLE      RAIN      63  63 100 E3        29.82F
GRAND RAPIDS   RAIN      63  62  97 VRB5      29.86F FOG
CRANE LAKE     RAIN      59  57  94 CALM      29.91F
ORR            DRIZZLE   61  57  88 CALM      29.86S
COOK           DRIZZLE   61  59  94 CALM      29.89S
WALKER         DRIZZLE   64  63  97 E3        29.82F
$$
MNZ012-019>021-037-170200-
   Northeast Minnesota

CITY           SKY/WX    TMP DP  RH WIND       PRES   REMARKS
DULUTH         CLOUDY    59  58  96 E15G23    29.86R
ELY            PTCLDY    59  55  88 E5        29.90S
HIBBING        LGT RAIN  60  60 100 E5        29.86F FOG
EVELETH        RAIN      60  57  89 E3        29.88F
DULUTH HARBOR  CLOUDY    63  61  94 NE22      29.85S
TWO HARBORS    CLOUDY    63  57  82 NE8G17    29.85F
GRAND MARAIS     N/A     62  59  90 NE7       29.91
G MARAIS ARPRT DRIZZLE   57  52  82 NE9       29.95F
$$
MNZ029>031-032-039>041-046>048-054>057-064-170200-
   West Central Minnesota

CITY           SKY/WX    TMP DP  RH WIND       PRES   REMARKS
FERGUS FALLS   DRIZZLE   66  66 100 NE5       29.77F
WHEATON        LGT RAIN  66  64  94 N7        29.77F
MORRIS         LGT RAIN  68  66  94 N9        29.73F
ALEXANDRIA     LGT RAIN  66  65  96 NE7       29.76F
ELBOW LAKE     LGT RAIN  66  66 100 N6        29.77F
WADENA         LGT RAIN  64  64 100 NE6       29.79S
GLENWOOD       LGT RAIN  66  64  94 N13       29.74F
APPLETON       RAIN      68  64  88 N13       29.70F
BENSON         RAIN      68  64  88 NE10      29.72F
ORTONVILLE     LGT RAIN  66  64  94 MISG      29.73F
MADISON        RAIN      70  70 100 N12       29.70F
WILLMAR        RAIN      68  66  94 N16       29.68S
$$
MNZ033>034-036-042>043-049>051-058-059-170200-
   Central Minnesota

CITY           SKY/WX    TMP DP  RH WIND       PRES   REMARKS
ST CLOUD       RAIN      68  68 100 NE8       29.71F FOG
SAUK CENTRE    LGT RAIN  65  65  97 NE7       29.74F
PAYNESVILLE    RAIN      67  66  98 NE13G18   29.70S
AITKIN         CLOUDY    63  61  94 N7        29.80F
PINE RIVER     LGT RAIN  63  61  94 E5        29.84F
BRAINERD       RAIN      64  63  96 NE8       29.78F FOG
STAPLES        LGT RAIN  64  64 100 NE5       29.79F
LONG PRAIRIE   RAIN      64  63  94 N7        29.75F
LITTLE FALLS   LGT RAIN  64  63  94 N5        29.75F
LITCHFIELD     RAIN      70  70 100 NE14G22   29.67F
BUFFALO        RAIN      71  67  88 NE13      29.67F
MAPLE LAKE     LGT RAIN  71  69  95 NE16      29.68F
HUTCHINSON     HVY RAIN  70  70  98 N14G26    29.61F
$$
MNZ037-044-045-052-053-170200-
   East Central Minnesota

CITY           SKY/WX    TMP DP  RH WIND       PRES   REMARKS
PRINCETON      LGT RAIN  72  68  88 NE8       29.72F
MORA           LGT RAIN  68  64  88 NE3       29.77F
RUSH CITY      HVY RAIN  71  66  84 NE5       29.75S
MOOSE LAKE     CLOUDY    61  59  94 NE6       29.79F
HINCKLEY       LGT RAIN  70  66  88 NE6       29.77F
CLOQUET        CLOUDY    61  57  88 E8G17     29.84F
MCGREGOR       CLOUDY    63  61  94 NE6       29.82F
$$
MNZ071>073-080-081-089-090-097-098-170200-
   Southwest Minnesota

CITY           SKY/WX    TMP DP  RH WIND       PRES   REMARKS
MONTEVIDEO     RAIN      66  66 100 NE17      29.68F
GRANITE FALLS  HVY RAIN  68  67  97 N21G28    29.65F
CANBY          RAIN      67  65  94 N7G20     29.72R
MARSHALL       HVY RAIN  66  65  96 N18G24    29.65R FOG
REDWOOD FALLS  RAIN      69  67  93 NE6       29.60F VSB 1
OLIVIA         HVY RAIN  70  68  94 NE13G21   29.61F
PIPESTONE      RAIN      66  64  94 NW10      29.69R
WINDOM         CLEAR     72  66  83 S7        29.61F
WORTHINGTON    LGT RAIN  66  65  96 W17G23    29.65S FOG
JACKSON        CLOUDY    70  64  83 SW10      29.64F
TRACY          DRIZZLE   67  67 100 NW12      29.62F
SLAYTON        HVY RAIN  65  61  85 N17G23    29.65S
$$
MNZ065>067-074>077-082>085-091>093-170200-
   South Central Minnesota

CITY           SKY/WX    TMP DP  RH WIND       PRES   REMARKS
MANKATO        CLOUDY    69  68  96 SE9       29.64F
NEW ULM        CLOUDY    70  68  94 SE7       29.61F
ST JAMES       PTCLDY    70  66  88 SE7       29.62F
FAIRMONT       CLOUDY    74  69  85 S14G21    29.63F
GLENCOE        RAIN      71  71 100 E16G37    29.63S
FARIBAULT      RAIN      72  70  94 E12       29.66F
OWATONNA       CLOUDY    72  70  94 E10       29.67F
WASECA         CLOUDY    72  70  94 SE5       29.66F
ALBERT LEA     CLOUDY    73  73 100 S8        29.66F
$$
MNZ078>079-086>088-094>096-170200-
   Southeast Minnesota

CITY           SKY/WX    TMP DP  RH WIND       PRES   REMARKS
ROCHESTER      LGT RAIN  71  70  96 SE10      29.70F
RED WING       RAIN      73  70  88 E16       29.68S
STANTON        LGT RAIN  73  69  89 SE10      29.66F
DODGE CENTER   CLOUDY    70  68  94 SE8       29.69F FOG
WINONA         CLOUDY    72  72 100 SE10      29.71F
AUSTIN         LGT RAIN  73  70  88 S7        29.68S
PRESTON        CLOUDY    71  69  94 SE8       29.72F
$$
ABBREVIATIONS USED IN REMARKS
   TC - TEMPERATURES IN CELSIUS
  WCI - WIND CHILL INDEX
   HX - HEAT INDEX
  VSB - VISIBILITY
$$



USA.gov is the U.S. government's official web portal to all federal, state and local government web resources and services.